CAPE
0 0 17 608 1133 1298 1179 1006 747 757 611 386 207 80 50 76 22 4 26 38 48 72 123 217 388 402 518 715 986 781 819 932
0 0 0 132 662 1044 1095 1091 991 708 614 456 252 106 42 17 17 22 61 83 111 194 401 535 545 745 981 842 1106 1211 732 182
0 0 0 5 241 781 1000 1045 973 783 727 460 293 204 119 87 115 198 348 507 633 721 745 807 761 893 825 807 769 654 438 84
0 0 0 0 18 521 834 972 996 839 677 353 290 343 238 329 765 950 1116 1219 1215 1024 932 911 929 885 898 676 513 431 467 22
0 0 0 0 0 195 673 896 1007 880 651 463 273 483 436 540 799 903 748 833 777 772 680 499 441 261 177 78 37 45 26 6
0 0 0 0 0 111 663 956 981 949 858 840 701 846 792 494 578 341 284 74 44 11 1 0 0 1 0 0 0 0 0 1
0 0 0 0 104 353 725 876 839 891 868 969 1036 804 359 539 310 235 20 0 0 1 1 0 0 0 0 0 0 0 0 0
0 0 0 0 3 224 634 724 698 716 750 746 909 416 478 641 206 5 0 0 3 0 0 0 0 0 0 0 0 0 0 0
0 0 0 0 0 36 273 556 565 456 372 348 70 54 143 28 0 0 0 0 0 0 0 0 0 0 0 0 0 0 0 0
0 0 0 0 0 6 166 219 126 70 29 54 32 0 0 0 0 0 0 0 0 0 0 0 0 0 0 0 0 0 0 0
0 0 0 0 0 0 17 20 45 5 10 13 0 0 0 0 0 0 0 0 0 0 0 0 0 0 0 0 0 0 0 0
0 0 0 0 0 0 0 0 0 0 0 0 0 0 0 0 0 0 0 0 0 0 0 0 0 0 0 0 0 0 0 0
0 0 0 0 0 0 0 0 0 0 0 0 0 0 0 0 0 0 0 0 0 0 0 0 0 0 0 0 0 0 1 2
0 0 0 0 0 0 0 0 0 0 0 0 0 0 0 0 0 0 0 0 0 0 0 0 0 0 0 0 1 2 3 3
0 0 0 0 0 0 0 0 0 0 0 0 0 0 0 0 0 0 0 0 0 0 0 0 0 0 0 0 2 3 3 3
0 0 0 0 0 0 0 0 0 0 0 0 0 0 0 0 0 0 0 0 0 0 0 0 0 0 0 1 2 3 3 2
0 0 0 0 0 0 0 0 0 0 0 0 0 0 0 0 0 0 0 0 0 0 0 0 0 0 0 0 1 2 2 2
0 0 0 0 0 0 0 0 0 0 0 0 0 0 0 0 0 0 0 0 0 0 0 0 0 0 0 0 0 0 1 1
0 0 0 0 0 0 0 0 0 0 0 0 0 0 0 0 0 0 0 0 0 0 0 0 0 0 0 0 0 0 1 0
CIN
0 0 -305 -282 -266 -263 -295 -335 -392 -360 -359 -396 -426 -484 -483 -451 -451 -147 -411 -373 -337 -301 -241 -183 -137 -124 -104 -72 -31 -48 -40 -27
0 0 0 -297 -305 -294 -307 -307 -331 -368 -366 -377 -415 -473 -492 -482 -459 -406 -357 -321 -281 -230 -155 -117 -119 -76 -52 -51 -15 -2 -34 -132
0 0 0 -323 -291 -293 -309 -314 -332 -370 -371 -383 -394 -416 -425 -384 -345 -292 -232 -173 -136 -113 -98 -91 -91 -67 -64 -47 -37 -36 -61 -147
0 0 0 0 -157 -291 -301 -321 -347 -347 -366 -382 -384 -324 -339 -279 -183 -134 -84 -71 -60 -77 -69 -59 -46 -36 -28 -47 -52 -52 -29 -190
0 0 0 0 0 -355 -304 -351 -344 -348 -366 -359 -355 -257 -266 -255 -184 -119 -119 -98 -94 -79 -67 -67 -77 -102 -100 -153 -177 -155 -147 -64
0 0 0 0 0 -408 -347 -365 -339 -334 -351 -322 -305 -206 -191 -239 -182 -199 -201 -237 -221 -236 -182 0 0 -116 0 0 0 0 0 0
0 0 0 0 -449 -442 -401 -383 -366 -322 -327 -290 -255 -234 -294 -227 -244 -231 -294 0 0 0 0 0 0 0 0 0 0 0 0 0
0 0 0 0 -92 -453 -387 -384 -368 -345 -316 -292 -236 -307 -253 -200 -277 -138 0 0 0 0 0 0 0 0 0 0 0 0 0 0
0 0 0 0 0 -559 -446 -381 -353 -360 -365 -345 -444 -373 -293 -386 0 0 0 0 0 0 0 0 0 0 0 0 0 0 0 0
0 0 0 0 0 -457 -482 -450 -487 -509 -524 -492 -452 0 -60 0 0 0 0 0 0 0 0 0 0 0 0 0 0 0 0 0
0 0 0 0 0 0 -550 -581 -533 -325 -505 -296 0 0 0 0 0 0 0 0 0 0 0 0 0 0 0 0 0 0 0 0
0 0 0 0 0 0 0 0 0 0 0 0 0 0 0 0 0 0 0 0 0 0 0 0 0 0 0 0 0 0 0 0
0 0 0 0 0 0 0 0 0 0 0 0 0 0 0 0 0 0 0 0 0 0 0 0 0 0 0 0 0 0 0 0
0 0 0 0 0 0 0 0 0 0 0 0 0 0 0 0 0 0 0 0 0 0 0 0 0 0 0 0 0 0 0 0
0 0 0 0 0 0 0 0 0 0 0 0 0 0 0 0 0 0 0 0 0 0 0 0 0 0 0 0 0 0 0 0
0 0 0 0 0 0 0 0 0 0 0 0 0 0 0 0 0 0 0 0 0 0 0 0 0 0 0 0 0 0 0 0
0 0 0 0 0 0 0 0 0 0 0 0 0 0 0 0 0 0 0 0 0 0 0 0 0 0 0 0 0 0 0 0
0 0 0 0 0 0 0 0 0 0 0 0 0 0 0 0 0 0 0 0 0 0 0 0 0 0 0 0 0 0 0 0
0 0 0 0 0 0 0 0 0 0 0 0 0 0 0 0 0 0 0 0 0 0 0 0 0 0 0 0 0 0 0 0
Wind_Speed
30 23 19 19 19 19 16 14 13 12 12 12 13 12 13 14 10 9 6 7 6 7 11 12 13 14 16 17 19 20 21 24
37 31 20 22 26 23 20 18 17 14 13 13 13 12 10 11 10 9 7 8 9 10 13 13 13 14 16 16 19 21 22 23
35 36 27 22 21 26 24 21 19 17 16 14 18 14 14 12 9 9 12 13 13 14 15 17 17 18 17 17 18 22 23 23
33 37 28 25 23 25 26 24 21 19 18 16 17 14 15 13 12 13 14 13 15 15 16 17 17 17 18 17 17 19 24 24
30 31 31 24 24 25 29 26 23 21 19 18 18 17 17 16 14 13 12 13 14 13 13 14 14 14 15 17 18 20 22 24
23 25 26 23 27 25 24 25 23 22 20 19 18 18 17 14 13 12 13 14 13 13 13 12 13 14 15 17 19 19 20 23
25 27 30 25 24 24 23 23 22 20 19 17 16 16 14 12 12 12 13 13 13 13 13 12 12 13 14 15 17 19 21 22
29 29 26 24 24 22 23 22 20 19 17 17 17 16 14 12 12 12 11 11 13 11 9 9 11 12 14 15 18 20 22 23
26 24 23 25 23 21 21 20 18 18 18 17 16 15 13 12 12 9 10 9 7 6 7 8 10 12 14 16 19 21 22 24
17 29 27 24 22 21 21 20 18 18 17 15 15 15 13 11 9 8 7 6 5 6 7 9 11 13 15 17 20 22 23 24
16 17 21 23 25 23 22 21 19 17 15 14 14 13 12 10 8 6 5 4 4 4 7 9 11 13 16 18 21 23 24 26
19 17 19 22 24 24 23 21 19 17 15 13 12 11 10 9 7 6 5 4 5 6 8 9 12 14 18 21 23 24 25 25
16 14 14 16 20 22 23 21 19 17 15 14 12 10 10 8 7 6 5 6 6 6 9 11 13 16 19 22 24 24 24 24
16 14 16 16 17 20 21 21 19 17 16 14 12 11 10 9 7 6 5 6 7 7 9 12 15 18 20 22 22 22 22 23
15 13 14 17 16 17 19 19 18 17 15 15 14 12 10 9 8 7 7 6 6 8 11 14 16 19 21 22 21 20 21 21
13 12 12 14 16 17 18 18 18 17 16 15 14 12 10 8 7 7 6 7 7 9 11 14 17 18 19 19 19 19 19 20
15 14 13 14 16 17 18 19 20 19 18 16 14 12 10 9 8 7 7 7 8 10 12 14 16 17 17 18 17 18 18 19
23 20 19 18 18 18 19 19 18 19 18 17 16 13 11 9 8 7 7 7 8 10 12 13 14 15 15 15 15 16 17 18
23 18 18 20 19 19 18 19 19 19 19 18 16 13 11 10 8 7 6 7 8 9 11 11 12 13 12 12 13 15 18 19
Wind_Direction
275 271 257 252 249 246 240 229 229 232 251 256 261 263 269 277 281 286 283 285 284 294 302 306 309 310 310 310 310 313 314 314
275 273 260 255 252 246 237 232 236 239 244 247 258 247 255 268 274 276 283 293 292 292 297 302 305 306 308 310 311 311 313 316
276 269 266 250 239 244 240 235 234 236 241 246 266 258 263 267 270 276 283 289 293 295 297 298 300 302 305 308 310 310 312 316
276 270 265 251 243 239 237 238 237 237 242 248 263 262 271 265 268 278 283 290 295 295 298 300 301 302 302 306 309 310 311 315
272 270 267 246 233 243 241 240 240 240 239 244 248 251 257 266 267 278 287 298 302 303 307 309 310 311 312 314 315 316 315 314
262 264 264 244 248 243 234 237 239 241 240 242 242 249 260 266 271 276 290 299 301 306 309 313 313 315 317 316 317 319 320 317
263 267 267 250 245 242 238 234 237 239 238 235 233 241 246 252 261 276 289 295 300 307 310 317 319 320 322 323 324 323 322 322
260 257 259 244 240 237 236 231 233 232 232 236 237 241 242 245 255 274 283 294 299 305 317 326 329 330 329 328 326 325 325 323
251 243 245 245 239 234 228 224 224 227 232 237 242 244 245 253 262 272 287 297 299 312 332 337 335 332 331 330 328 327 327 325
242 250 247 244 236 228 225 223 223 228 231 236 239 242 240 244 254 272 284 291 300 314 333 334 335 335 333 332 329 329 329 329
264 239 240 244 243 236 230 226 224 227 230 233 232 236 238 241 247 252 265 285 302 322 328 335 336 335 334 333 330 330 329 328
264 256 250 247 241 236 231 228 226 227 225 229 223 229 229 237 239 251 266 286 302 316 320 329 330 332 331 330 330 330 329 330
262 253 240 234 233 231 229 227 225 222 218 215 219 209 214 222 239 249 255 279 302 317 319 324 327 330 332 331 330 331 331 331
267 260 249 245 238 230 226 224 223 220 211 214 216 216 222 237 243 257 272 288 303 315 319 325 327 328 331 332 333 333 335 335
276 260 243 245 238 225 222 219 212 209 211 215 218 216 216 232 252 264 275 289 304 317 324 326 329 330 333 333 335 338 339 341
272 257 248 244 235 222 217 216 210 207 208 212 216 214 223 230 247 263 276 293 310 322 325 328 331 334 335 337 339 341 344 345
277 266 257 247 229 219 214 210 208 206 206 206 204 207 216 232 241 252 273 294 310 320 325 330 334 338 343 344 346 346 348 348
274 266 257 241 226 216 214 209 205 206 206 203 203 207 216 225 233 245 268 292 309 321 328 334 338 344 349 352 354 353 354 353
269 260 256 241 231 225 220 215 208 205 205 202 201 206 217 223 230 249 273 292 309 324 331 338 347 351 359 2 5 2 359 356